Weather History for Sturgeon Bay, WI

Change the Weather History Date:

Friday, November 23, 2012

  Actual Average Record
Temperature  
Mean Temperature 35 °F -  
Max Temperature 42 °F 39 °F 53 °F (1908)
Min Temperature 28 °F 26 °F 4 °F (1950)
Degree Days  
Heating Degree Days 30    
Moisture  
Dew Point 18 °F    
Average Humidity 59    
Maximum Humidity 70    
Minimum Humidity 48    
Precipitation  
Precipitation 0.00 in - - ()
Sea Level Pressure  
Sea Level Pressure 29.86 in    
Wind  
Wind Speed 23 mph (WNW)    
Max Wind Speed 29 mph    
Max Gust Speed 41 mph    
Visibility 10 miles    
Events      
Averages and records for this station are not official NWS values.
T = Trace of Precipitation, MM = Missing Value Source: NWS Daily Summary

Daily Weather History Graph

Daily Weather History Graph

Search for Another Location

Airport:

Trip Planner

Search our weather history database for the weather conditions in past years. The results will help you decide how hot, cold, wet, or windy it might be!

Date:

Astronomy

Nov. 23, 2012 Rise Set
Actual Time 6:58 AM CST 4:14 PM CST
Civil Twilight 6:25 AM CST 4:46 PM CST
Nautical Twilight 5:49 AM CST 5:22 PM CST
Astronomical Twilight 5:14 AM CST 5:57 PM CST
Moon 1:37 PM CST (11/23) 2:06 AM CST (11/23)
Length of Visible Light 10h 20m
Length of Day
9h 15m
Waxing Gibbous, 80% of the Moon is Illuminated
Nov 23
Waxing Gibbous
Nov 28
Full
Dec 6
Last Quarter
Dec 13
New
Dec 19
First Quarter

Hourly Weather History & Observations

Time (CST) Temp. Windchill Dew Point Humidity Pressure Visibility Wind Dir Wind Speed Gust Speed Precip Events Conditions
12:15 AM 42.8 °F 33.5 °F 33.8 °F 70% 29.59 in 10.0 mi WSW 23.0 mph 32.2 mph N/A   Scattered Clouds
12:35 AM 39.2 °F 28.0 °F 30.2 °F 70% 29.59 in 10.0 mi West 26.5 mph 40.3 mph N/A   Mostly Cloudy
12:55 AM 39.2 °F 28.0 °F 28.4 °F 65% 29.60 in 10.0 mi West 26.5 mph 41.4 mph N/A   Mostly Cloudy
1:15 AM 37.4 °F 25.6 °F 28.4 °F 70% 29.61 in 10.0 mi West 26.5 mph 35.7 mph N/A   Mostly Cloudy
1:35 AM 37.4 °F 26.6 °F 26.6 °F 65% 29.63 in 10.0 mi West 21.9 mph 39.1 mph N/A   Overcast
1:55 AM 35.6 °F 24.2 °F 24.8 °F 65% 29.63 in 10.0 mi West 21.9 mph 39.1 mph N/A   Overcast
2:15 AM 35.6 °F 25.2 °F 24.8 °F 65% 29.64 in 10.0 mi West 18.4 mph 35.7 mph N/A   Overcast
2:35 AM 33.8 °F 21.0 °F 23.0 °F 65% 29.64 in 10.0 mi West 25.3 mph 38.0 mph N/A   Mostly Cloudy
2:55 AM 33.8 °F 20.3 °F 21.2 °F 60% 29.65 in 10.0 mi West 28.8 mph 38.0 mph N/A   Overcast
3:15 AM 32.0 °F 19.2 °F 21.2 °F 64% 29.65 in 10.0 mi West 23.0 mph 29.9 mph N/A   Overcast
3:35 AM 32.0 °F 18.9 °F 17.6 °F 55% 29.66 in 10.0 mi West 24.2 mph 41.4 mph N/A   Mostly Cloudy
3:55 AM 32.0 °F 19.2 °F 21.2 °F 64% 29.66 in 10.0 mi West 23.0 mph 33.4 mph N/A   Overcast
4:15 AM 30.2 °F 16.2 °F 19.4 °F 64% 29.67 in 10.0 mi West 25.3 mph 32.2 mph N/A   Overcast
4:35 AM 30.2 °F 15.9 °F 17.6 °F 60% 29.66 in 10.0 mi West 26.5 mph 34.5 mph N/A   Overcast
4:55 AM 30.2 °F 18.5 °F 17.6 °F 60% 29.66 in 10.0 mi West 17.3 mph 31.1 mph N/A   Mostly Cloudy
5:15 AM 30.2 °F 17.1 °F 19.4 °F 64% 29.67 in 10.0 mi West 21.9 mph 31.1 mph N/A   Mostly Cloudy
5:35 AM 30.2 °F 17.4 °F 17.6 °F 60% 29.67 in 10.0 mi West 20.7 mph 26.5 mph N/A   Overcast
5:55 AM 30.2 °F 15.9 °F 17.6 °F 60% 29.67 in 10.0 mi West 26.5 mph 33.4 mph N/A   Overcast
6:15 AM 28.4 °F 14.1 °F 17.6 °F 64% 29.68 in 10.0 mi West 24.2 mph 32.2 mph N/A   Overcast
6:35 AM 28.4 °F 13.8 °F 17.6 °F 64% 29.68 in 10.0 mi West 25.3 mph 29.9 mph N/A   Overcast
6:55 AM 28.4 °F 14.7 °F 19.4 °F 69% 29.70 in 10.0 mi West 21.9 mph 28.8 mph N/A   Overcast
7:15 AM 28.4 °F 15.4 °F 19.4 °F 69% 29.71 in 10.0 mi West 19.6 mph 34.5 mph N/A   Overcast
7:35 AM 30.2 °F 18.1 °F 19.4 °F 64% 29.72 in 10.0 mi West 18.4 mph 27.6 mph N/A   Overcast
7:55 AM 30.2 °F 18.1 °F 19.4 °F 64% 29.73 in 10.0 mi West 18.4 mph 26.5 mph N/A   Overcast
8:15 AM 30.2 °F 16.5 °F 19.4 °F 64% 29.73 in 10.0 mi West 24.2 mph 31.1 mph N/A   Overcast
8:35 AM 30.2 °F 18.9 °F 21.2 °F 69% 29.74 in 10.0 mi West 16.1 mph 25.3 mph N/A   Overcast
8:55 AM 30.2 °F 18.5 °F 21.2 °F 69% 29.75 in 10.0 mi West 17.3 mph 26.5 mph N/A   Scattered Clouds
9:15 AM 32.0 °F 19.5 °F 21.2 °F 64% 29.76 in 10.0 mi West 21.9 mph 26.5 mph N/A   Mostly Cloudy
9:35 AM 32.0 °F 20.5 °F 21.2 °F 64% 29.77 in 10.0 mi WNW 18.4 mph - N/A   Overcast
9:55 AM 32.0 °F 20.5 °F 17.6 °F 55% 29.78 in 10.0 mi WNW 18.4 mph 27.6 mph N/A   Overcast
10:15 AM 33.8 °F 21.6 °F 17.6 °F 52% 29.79 in 10.0 mi NW 23.0 mph 34.5 mph N/A   Overcast
10:35 AM 32.0 °F 19.8 °F 17.6 °F 55% 29.80 in 10.0 mi NW 20.7 mph 34.5 mph N/A   Overcast
10:55 AM 32.0 °F 19.5 °F 17.6 °F 55% 29.81 in 10.0 mi NW 21.9 mph 31.1 mph N/A   Overcast
11:15 AM 32.0 °F 18.6 °F 15.8 °F 51% 29.81 in 10.0 mi NW 25.3 mph 34.5 mph N/A   Overcast
11:35 AM 32.0 °F 18.9 °F 15.8 °F 51% 29.82 in 10.0 mi WNW 24.2 mph 40.3 mph N/A   Overcast
12:15 PM 33.8 °F 21.6 °F 17.6 °F 52% 29.85 in 10.0 mi NW 23.0 mph 35.7 mph N/A   Overcast
12:35 PM 33.8 °F 20.5 °F 15.8 °F 48% 29.86 in 10.0 mi NW 27.6 mph 38.0 mph N/A   Overcast
12:55 PM 33.8 °F 21.3 °F 15.8 °F 48% 29.87 in 10.0 mi NW 24.2 mph 32.2 mph N/A   Overcast
1:15 PM 32.0 °F 19.2 °F 15.8 °F 51% 29.88 in 10.0 mi NW 23.0 mph 39.1 mph N/A   Mostly Cloudy
1:35 PM 32.0 °F 18.1 °F 15.8 °F 51% 29.89 in 10.0 mi NNW 27.6 mph 38.0 mph N/A   Mostly Cloudy
1:55 PM 33.8 °F 21.6 °F 17.6 °F 52% 29.90 in 10.0 mi NW 23.0 mph 31.1 mph N/A   Overcast
2:15 PM 33.8 °F 21.3 °F 17.6 °F 52% 29.92 in 10.0 mi NW 24.2 mph 34.5 mph N/A   Overcast
2:35 PM 33.8 °F 21.6 °F 15.8 °F 48% 29.93 in 10.0 mi NW 23.0 mph 34.5 mph N/A   Overcast
2:55 PM 32.0 °F 19.5 °F 15.8 °F 51% 29.95 in 10.0 mi NW 21.9 mph 33.4 mph N/A   Overcast
3:15 PM 32.0 °F 19.8 °F 17.6 °F 55% 29.97 in 10.0 mi NW 20.7 mph 32.2 mph N/A   Overcast
3:35 PM 30.2 °F 16.8 °F 15.8 °F 55% 29.99 in 10.0 mi NW 23.0 mph 32.2 mph N/A   Overcast
3:55 PM 30.2 °F 17.8 °F 15.8 °F 55% 30.01 in 10.0 mi NW 19.6 mph 31.1 mph N/A   Overcast
4:15 PM 30.2 °F 16.8 °F 14.0 °F 51% 30.02 in 10.0 mi NW 23.0 mph 36.8 mph N/A   Overcast
4:35 PM 28.4 °F 14.1 °F 14.0 °F 55% 30.03 in 10.0 mi NW 24.2 mph 33.4 mph N/A   Overcast
4:55 PM 28.4 °F 14.4 °F 15.8 °F 59% 30.04 in 10.0 mi NW 23.0 mph 31.1 mph N/A   Overcast
5:15 PM 28.4 °F 13.3 °F 15.8 °F 59% 30.05 in 10.0 mi WNW 27.6 mph 34.5 mph N/A   Overcast
5:35 PM 28.4 °F 14.1 °F 15.8 °F 59% 30.06 in 10.0 mi NNW 24.2 mph 36.8 mph N/A   Overcast
5:55 PM 28.4 °F 15.8 °F 15.8 °F 59% 30.06 in 10.0 mi NW 18.4 mph 31.1 mph N/A   Overcast
6:15 PM 28.4 °F 14.4 °F 15.8 °F 59% 30.07 in 10.0 mi NW 23.0 mph 28.8 mph N/A   Overcast
6:35 PM 28.4 °F 13.3 °F 15.8 °F 59% 30.07 in 10.0 mi NNW 27.6 mph 34.5 mph N/A   Overcast
6:55 PM 28.4 °F 14.1 °F 15.8 °F 59% 30.08 in 10.0 mi NW 24.2 mph 33.4 mph N/A   Overcast
7:15 PM 28.4 °F 15.8 °F 15.8 °F 59% 30.09 in 10.0 mi NW 18.4 mph 27.6 mph N/A   Overcast
7:35 PM 28.4 °F 15.8 °F 15.8 °F 59% 30.09 in 10.0 mi NW 18.4 mph 25.3 mph N/A   Overcast
7:55 PM 28.4 °F 15.1 °F 15.8 °F 59% 30.10 in 10.0 mi NW 20.7 mph 27.6 mph N/A   Overcast
8:15 PM 28.4 °F 15.8 °F 15.8 °F 59% 30.10 in 10.0 mi NW 18.4 mph 28.8 mph N/A   Overcast
8:35 PM 28.4 °F 17.0 °F 15.8 °F 59% 30.10 in 10.0 mi NW 15.0 mph 26.5 mph N/A   Overcast
8:55 PM 28.4 °F 16.2 °F 15.8 °F 59% 30.10 in 10.0 mi NW 17.3 mph 26.5 mph N/A   Overcast
9:35 PM 28.4 °F 14.7 °F 12.2 °F 51% 30.10 in 10.0 mi NNW 21.9 mph 32.2 mph N/A   Overcast
9:55 PM 28.4 °F 15.1 °F 15.8 °F 59% 30.10 in 10.0 mi NW 20.7 mph 26.5 mph N/A   Overcast
10:15 PM 28.4 °F 15.4 °F 14.0 °F 55% 30.10 in 10.0 mi NW 19.6 mph 29.9 mph N/A   Overcast
10:35 PM 28.4 °F 15.4 °F 14.0 °F 55% 30.10 in 10.0 mi NNW 19.6 mph 25.3 mph N/A   Overcast
10:55 PM 28.4 °F 15.1 °F 12.2 °F 51% 30.10 in 10.0 mi NNW 20.7 mph 26.5 mph N/A   Overcast
11:15 PM 28.4 °F 15.1 °F 12.2 °F 51% 30.11 in 10.0 mi NNW 20.7 mph 32.2 mph N/A   Overcast
11:35 PM 28.4 °F 15.4 °F 12.2 °F 51% 30.11 in 10.0 mi NNW 19.6 mph 34.5 mph N/A   Overcast
11:55 PM 28.4 °F 15.8 °F 12.2 °F 51% 30.11 in 10.0 mi NNW 18.4 mph 26.5 mph N/A   Overcast